Miscellaneous Local Product
Issued by NWS Hastings, NE

Home | Current Version | Previous Version | Graphics & Text | Print | Product List | Glossary On
Versions: 1 2 3 4 5 6 7 8 9 10 11 12 13 14 15 16 17 18 19 20 21 22 23 24 25 26 27 28 29 30 31 32 33 34 35 36 37 38 39 40 41 42 43 44 45 46 47 48 49 50
000
AXUS43 KGID 221802
MISGRI

GID CWA HOURLY WEATHER ROUNDUP
NATIONAL WEATHER SERVICE HASTINGS NE
100 PM CDT THU JUN 22 2017

NOTE: "FAIR" INDICATES FEW OR NO CLOUDS BELOW 12,000 FEET WITH NO
SIGNIFICANT WEATHER AND/OR OBSTRUCTIONS TO VISIBILITY.

...SOUTH CENTRAL NEBRASKA...

CITY           SKY/WX    TMP DP  RH WIND       PRES   REMARKS
GRAND ISLAND   CLOUDY    89  66  46 S5        29.65R HX  91
HASTINGS       MOSUNNY   86  63  45 S10       29.66S
KEARNEY        CLOUDY    88  61  40 N5        29.67R
ORD            PTSUNNY   85  67  54 N22G32    29.67R
YORK           CLOUDY    86  66  51 S13       29.63F
AURORA         CLOUDY    88  62  41 S12       29.65R
LEXINGTON      SUNNY     89  59  35 N14       29.68R
HOLDREGE       SUNNY     89  60  37 W7        29.66S
HEBRON         SUNNY     91  62  37 SW13G20   29.64S HX  91

...NEBRASKA PANHANDLE...

CITY           SKY/WX    TMP DP  RH WIND       PRES   REMARKS
CHADRON        MOSUNNY   74  53  48 NE6G18    29.93S
ALLIANCE       MOSUNNY   74  54  49 N16G30    29.92R
SCOTTSBLUFF    SUNNY     79  51  37 NE17G26   29.92F
SIDNEY         SUNNY     79  52  38 N26G36    29.91R

...WESTERN AND NORTH CENTRAL NEBRASKA...

CITY           SKY/WX    TMP DP  RH WIND       PRES   REMARKS
VALENTINE      CLOUDY    69  54  58 N15       29.87R
AINSWORTH      CLOUDY    74  58  57 N18G30    29.83R
ONEILL         CLOUDY    80  59  49 NE20G26   29.76R
BROKEN BOW     MOSUNNY   83  65  54 N20G30    29.71R
IMPERIAL       SUNNY     86  55  34 N22G35    29.79R
NORTH PLATTE   MOSUNNY   85  64  49 N20G30    29.75R
MCCOOK         SUNNY     96  58  27 NW18G28   29.68S HX  95

...EASTERN NEBRASKA...

CITY           SKY/WX    TMP DP  RH WIND       PRES   REMARKS
NORFOLK        CLOUDY    86  62  44 VRB6      29.64S
SO SIOUX CITY  CLOUDY    84  68  58 NE20G25   29.65R
TEKAMAH        CLOUDY    85  63  47 SE9       29.65R
COLUMBUS       CLOUDY    88  68  51 S7        29.64R HX  91
ALBION         SUNNY     88  62  41 N9        29.66S
OMAHA EPPLEY   PTSUNNY   86  67  52 S12       29.65F
OFFUTT AFB     MOSUNNY   87  68  54 SE10      29.65S HX  90
MILLARD        MOSUNNY   86  69  56 SE10      29.64F HX  91
LINCOLN        CLOUDY    85  68  56 S10       29.64S
NEBRASKA CITY  SUNNY     86  69  56 S16       29.66F
BEATRICE       CLOUDY    88  67  51 S17G23    29.64F HX  91
FALLS CITY     SUNNY     86  68  54 S14G24    29.67F

...NORTHERN KANSAS...

CITY           SKY/WX    TMP DP  RH WIND       PRES   REMARKS
GOODLAND       SUNNY     93  51  23 N20G31    29.77R HX  90
HILL CITY      SUNNY     95  65  37 VRB6      29.64F HX  97
NORTON         CLEAR     99  43  14 NW7G16    29.65F HX  94
PHILLIPSBURG   SUNNY     95  59  30 S6        29.63F HX  94
SMITH CENTER   SUNNY     90  63  40 SW12G17   29.65S HX  90
HAYS           CLOUDY    93  63  36 SW14G23   29.66F HX  94
RUSSELL        SUNNY     93  60  33 S20G30    29.64F HX  93
CONCORDIA      SUNNY     92  63  38 S16       29.65F HX  93
SALINA         SUNNY     94  61  33 S24G33    29.65F HX  94
TOPEKA         SUNNY     86  71  60 S18       29.70F HX  91



USA.gov is the U.S. government's official web portal to all federal, state and local government web resources and services.